Weather History for North Padre Island, TX

Change the Weather History Date:

Wednesday, January 15, 2014

  Actual Average Record
Temperature  
Mean Temperature 60 °F -  
Max Temperature 64 °F - - ()
Min Temperature 57 °F - - ()
Degree Days  
Heating Degree Days 4    
Growing Degree Days 10 (Base 50)    
Moisture  
Dew Point 37 °F    
Average Humidity 45    
Maximum Humidity 73    
Minimum Humidity 31    
Precipitation  
Precipitation 0.00 in - - ()
Sea Level Pressure  
Sea Level Pressure 30.32 in    
Wind  
Wind Speed 12 mph (North)    
Max Wind Speed 21 mph    
Max Gust Speed 29 mph    
Visibility 10 miles    
Events      
T = Trace of Precipitation, MM = Missing Value Source: NWS Daily Summary

Daily Weather History Graph

Daily Weather History Graph

Search for Another Location

Airport:

Trip Planner

Search our weather history database for the weather conditions in past years. The results will help you decide how hot, cold, wet, or windy it might be!

Date:

Astronomy

Jan. 15, 2014 Rise Set
Actual Time 7:18 AM CST 5:56 PM CST
Civil Twilight 6:53 AM CST 6:21 PM CST
Nautical Twilight 6:24 AM CST 6:50 PM CST
Astronomical Twilight 5:56 AM CST 7:18 PM CST
Moon 5:49 PM CST (1/15) 6:39 AM CST (1/15)
Length of Visible Light 11h 28m
Length of Day
10h 38m
Full, 100% of the Moon is Illuminated
Jan 15
Full
Jan 15
Full
Jan 23
Last Quarter
Jan 30
New
Feb 6
First Quarter

Hourly Weather History & Observations

Time (CST) Temp. Dew Point Humidity Pressure Visibility Wind Dir Wind Speed Gust Speed Precip Events Conditions
12:15 AM 64.4 °F 55.4 °F 73% 30.21 in 10.0 mi West 8.1 mph 19.6 mph N/A   Partly Cloudy
12:35 AM 62.6 °F 51.8 °F 68% 30.21 in 10.0 mi WNW 13.8 mph - N/A   Clear
12:55 AM 62.6 °F 50.0 °F 63% 30.21 in 10.0 mi NNW 15.0 mph - N/A   Clear
1:15 AM 64.4 °F 44.6 °F 49% 30.21 in 10.0 mi North 10.4 mph 19.6 mph N/A   Clear
1:35 AM 64.4 °F 42.8 °F 45% 30.22 in 10.0 mi NNW 13.8 mph 25.3 mph N/A   Partly Cloudy
1:55 AM 64.4 °F 41.0 °F 42% 30.23 in 10.0 mi North 17.3 mph 27.6 mph N/A   Scattered Clouds
2:15 AM 64.4 °F 44.6 °F 49% 30.23 in 10.0 mi North 18.4 mph 26.5 mph N/A   Scattered Clouds
2:35 AM 62.6 °F 44.6 °F 52% 30.24 in 10.0 mi North 20.7 mph 28.8 mph N/A   Mostly Cloudy
2:55 AM 62.6 °F 44.6 °F 52% 30.24 in 10.0 mi North 16.1 mph 25.3 mph N/A   Scattered Clouds
3:15 AM 62.6 °F 44.6 °F 52% 30.25 in 10.0 mi North 13.8 mph 24.2 mph N/A   Scattered Clouds
3:35 AM 60.8 °F 44.6 °F 55% 30.26 in 10.0 mi North 13.8 mph 21.9 mph N/A   Scattered Clouds
3:55 AM 60.8 °F 44.6 °F 55% 30.28 in 10.0 mi North 16.1 mph 27.6 mph N/A   Scattered Clouds
4:15 AM 60.8 °F 44.6 °F 55% 30.28 in 10.0 mi North 16.1 mph 25.3 mph N/A   Scattered Clouds
4:35 AM 59.0 °F 44.6 °F 59% 30.30 in 10.0 mi North 13.8 mph 28.8 mph N/A   Scattered Clouds
4:55 AM 59.0 °F 44.6 °F 59% 30.30 in 10.0 mi North 17.3 mph 25.3 mph N/A   Scattered Clouds
5:15 AM 59.0 °F 44.6 °F 59% 30.31 in 10.0 mi North 15.0 mph 26.5 mph N/A   Mostly Cloudy
5:35 AM 59.0 °F 44.6 °F 59% 30.32 in 10.0 mi North 16.1 mph 27.6 mph N/A   Mostly Cloudy
5:55 AM 59.0 °F 46.4 °F 63% 30.33 in 10.0 mi North 12.7 mph 24.2 mph N/A   Mostly Cloudy
6:15 AM 57.2 °F 42.8 °F 59% 30.34 in 10.0 mi North 12.7 mph 21.9 mph N/A   Scattered Clouds
6:35 AM 57.2 °F 42.8 °F 59% 30.36 in 10.0 mi NNW 11.5 mph 19.6 mph N/A   Scattered Clouds
6:55 AM 57.2 °F 42.8 °F 59% 30.37 in 10.0 mi NNW 12.7 mph 20.7 mph N/A   Scattered Clouds
7:15 AM 57.2 °F 42.8 °F 59% 30.37 in 10.0 mi North 15.0 mph 21.9 mph N/A   Scattered Clouds
7:35 AM 57.2 °F 41.0 °F 55% 30.38 in 10.0 mi North 12.7 mph 21.9 mph N/A   Partly Cloudy
7:55 AM 57.2 °F 39.2 °F 51% 30.39 in 10.0 mi North 15.0 mph 25.3 mph N/A   Clear
8:15 AM 57.2 °F 41.0 °F 55% 30.40 in 10.0 mi North 15.0 mph - N/A   Clear
8:35 AM 57.2 °F 37.4 °F 48% 30.41 in 10.0 mi North 19.6 mph 26.5 mph N/A   Clear
8:55 AM 57.2 °F 35.6 °F 44% 30.41 in 10.0 mi North 19.6 mph 28.8 mph N/A   Clear
9:15 AM 57.2 °F 35.6 °F 44% 30.42 in 10.0 mi North 17.3 mph 25.3 mph N/A   Clear
9:35 AM 59.0 °F 35.6 °F 42% 30.43 in 10.0 mi North 16.1 mph 23.0 mph N/A   Clear
9:55 AM 59.0 °F 35.6 °F 42% 30.43 in 10.0 mi North 12.7 mph 21.9 mph N/A   Clear
10:15 AM 59.0 °F 37.4 °F 45% 30.43 in 10.0 mi North 13.8 mph 21.9 mph N/A   Clear
10:35 AM 59.0 °F 37.4 °F 45% 30.43 in 10.0 mi North 11.5 mph 20.7 mph N/A   Clear
10:55 AM 57.2 °F 37.4 °F 48% 30.43 in 10.0 mi North 13.8 mph 21.9 mph N/A   Clear
11:15 AM 57.2 °F 35.6 °F 44% 30.43 in 10.0 mi North 15.0 mph - N/A   Clear
11:35 AM 59.0 °F 37.4 °F 45% 30.42 in 10.0 mi North 10.4 mph 18.4 mph N/A   Clear
11:55 AM 59.0 °F 35.6 °F 42% 30.41 in 10.0 mi North 9.2 mph 17.3 mph N/A   Clear
12:15 PM 57.2 °F 35.6 °F 44% 30.41 in 10.0 mi North 11.5 mph 18.4 mph N/A   Clear
12:35 PM 57.2 °F 35.6 °F 44% 30.40 in 10.0 mi North 10.4 mph 18.4 mph N/A   Clear
12:55 PM 57.2 °F 35.6 °F 44% 30.39 in 10.0 mi North 9.2 mph 16.1 mph N/A   Clear
1:15 PM 57.2 °F 35.6 °F 44% 30.37 in 10.0 mi North 6.9 mph 15.0 mph N/A   Clear
1:35 PM 59.0 °F 35.6 °F 42% 30.36 in 10.0 mi Variable 6.9 mph 12.7 mph N/A   Clear
1:55 PM 57.2 °F 33.8 °F 41% 30.35 in 10.0 mi North 6.9 mph - N/A   Clear
2:15 PM 57.2 °F 32.0 °F 38% 30.35 in 10.0 mi NNW 6.9 mph - N/A   Clear
2:35 PM 59.0 °F 32.0 °F 36% 30.34 in 10.0 mi NNW 6.9 mph - N/A   Clear
2:55 PM 59.0 °F 33.8 °F 39% 30.33 in 10.0 mi NNW 8.1 mph - N/A   Clear
3:15 PM 57.2 °F 32.0 °F 38% 30.33 in 10.0 mi NNW 5.8 mph 11.5 mph N/A   Clear
3:35 PM 57.2 °F 32.0 °F 38% 30.33 in 10.0 mi NNW 5.8 mph - N/A   Clear
3:55 PM 59.0 °F 30.2 °F 34% 30.32 in 10.0 mi NNW 5.8 mph - N/A   Clear
4:15 PM 59.0 °F 32.0 °F 36% 30.32 in 10.0 mi Variable 4.6 mph - N/A   Clear
4:35 PM 59.0 °F 32.0 °F 36% 30.31 in 10.0 mi Variable 3.5 mph - N/A   Clear
4:55 PM 59.0 °F 33.8 °F 39% 30.31 in 10.0 mi Calm Calm - N/A   Clear
5:15 PM 59.0 °F 33.8 °F 39% 30.31 in 10.0 mi Calm Calm - N/A   Clear
5:35 PM 57.2 °F 32.0 °F 38% 30.31 in 10.0 mi North 3.5 mph - N/A   Clear
5:55 PM 57.2 °F 30.2 °F 36% 30.30 in 10.0 mi NE 4.6 mph - N/A   Clear
6:15 PM 57.2 °F 32.0 °F 38% 30.29 in 10.0 mi ENE 8.1 mph - N/A   Clear
6:35 PM 57.2 °F 32.0 °F 38% 30.28 in 10.0 mi NE 8.1 mph - N/A   Clear
6:55 PM 59.0 °F 32.0 °F 36% 30.28 in 10.0 mi ENE 5.8 mph - N/A   Clear
7:15 PM 59.0 °F 32.0 °F 36% 30.28 in 10.0 mi East 4.6 mph - N/A   Clear
7:35 PM 59.0 °F 30.2 °F 34% 30.27 in 10.0 mi East 4.6 mph - N/A   Clear
7:55 PM 59.0 °F 32.0 °F 36% 30.27 in 10.0 mi East 5.8 mph - N/A   Clear
8:15 PM 59.0 °F 32.0 °F 36% 30.26 in 10.0 mi ESE 5.8 mph - N/A   Clear
8:35 PM 59.0 °F 32.0 °F 36% 30.26 in 10.0 mi ESE 6.9 mph - N/A   Clear
8:55 PM 59.0 °F 33.8 °F 39% 30.27 in 10.0 mi SE 8.1 mph - N/A   Clear
9:15 PM 59.0 °F 33.8 °F 39% 30.26 in 10.0 mi SE 9.2 mph - N/A   Clear
9:35 PM 60.8 °F 32.0 °F 34% 30.26 in 10.0 mi ESE 8.1 mph - N/A   Clear
9:55 PM 60.8 °F 30.2 °F 31% 30.26 in 10.0 mi SE 5.8 mph - N/A   Clear
10:15 PM 60.8 °F 32.0 °F 34% 30.26 in 10.0 mi ESE 6.9 mph - N/A   Clear
10:35 PM 60.8 °F 33.8 °F 36% 30.26 in 10.0 mi SE 6.9 mph - N/A   Clear
10:55 PM 60.8 °F 33.8 °F 36% 30.26 in 10.0 mi SSE 6.9 mph - N/A   Clear
11:15 PM 60.8 °F 33.8 °F 36% 30.25 in 10.0 mi SE 8.1 mph - N/A   Clear
11:35 PM 60.8 °F 33.8 °F 36% 30.25 in 10.0 mi SE 10.4 mph - N/A   Clear
11:55 PM 60.8 °F 33.8 °F 36% 30.24 in 10.0 mi SSE 9.2 mph - N/A   Clear